www.pogodaiklimat.ru

Погода и климат >> Архив погоды >> Мексика >> Тлашкала аэропорт


ПОГОДА в Тлашкала аэропорту

  • Прогноз погоды в Тлашкала аэропорту
  • Монитор погоды в Тлашкала аэропорту

АРХИВ ПОГОДЫ в Тлашкала аэропорту

Время (UTC), дата Ветер
(напр.,м/с)
 
Видим.   Явления Облачность Т
(С)
Тd
(С)
f
(%)
Тe
(С)
Тes
(С)
Комфортность P
(гПа)
Po
(гПа)
Тmin
(С)
Tmax
(С)
R
(мм)
R24
(мм)
S
(см)
12 16.02 штиль 0 12 км ясно +8.8 +6.0 83 +8 +8 1015.5 782.6 +8.0 +27.5
15 16.02 В 1 12 км мгла {туман} ясно +13.2 +5.6 60 +14 +20 1018.8 783.3
18 16.02 В 1 12 км мгла {туман} ясно +26.0 +6.7 29 +26 +44 жарко 1015.4 782.0 +8.0 +27.0
21 16.02 ЮВ 3 10 км дым {туман} 1/1 1500 м
[Cu med, cong]
+27.4 +4.9 24 +26 +34 жарко 1008.6 779.6
00 17.02 ЮВ 4 10 км дым {туман} ясно +24.7 +5.4 29 +24 +24 комфорт 1004.7 779.4 +8.0 +29.4
03 17.02 штиль 0 15 км 3/0 2000 м
[Ac trans Ci fib]
+19.6 +5.7 40 +20 +20 1004.5 781.0
06 17.02 штиль 0 12 км ясно +15.4 +7.4 59 +15 +15 1006.6 781.8 +8.0 +29.4
12 17.02 штиль 0 8000 м ясно +9.4 +7.3 87 +9 +9 1012.6 781.5 +8.4 +29.4
15 17.02 штиль 0 8000 м мгла {туман} ясно +13.8 +8.2 69 +14 +21 1017.3 783.4
18 17.02 ЮЗ 2 8000 м мгла {туман} ясно +23.4 +8.1 38 +25 +41 комфорт 1015.3 782.7 +8.4 +24.2
21 17.02 Ю 4 8000 м дым {туман} 1/1 1470 м
[Cu med, cong]
+27.1 +5.1 24 +26 +32 жарко 1009.8 780.6
00 18.02 Ю 3 10 км дым {туман} ясно +24.7 +4.7 27 +24 +24 комфорт 1006.2 780.4 +8.4 +27.8
03 18.02 штиль 0 12 км ясно +18.5 +4.5 40 +19 +19 1007.3 782.8
06 18.02 СЗ 1 12 км ясно +12.7 +4.5 57 +13 +13 1010.0 783.7 +27.8
12 18.02 штиль 0 8000 м ясно +7.6 +4.3 80 +7 +7 1016.1 782.8 +7.0 +27.8
15 18.02 ЮВ 1 12 км мгла {туман} ясно +13.6 +5.2 57 +14 +20 1020.3 784.1
18 18.02 штиль 0 15 км мгла {туман} ясно +25.2 +3.9 25 +24 +46 комфорт 1017.7 783.5 +6.2 +26.0
21 18.02 ЮВ 4 10 км 1/1 1500 м
[Cu hum]
+27.7 +2.4 20 +26 +32 жарко 1011.0 781.2
00 19.02 ЮВ 2 18 км ясно +25.5 +0.6 20 +24 +24 комфорт 1006.4 780.7 +6.2 +28.9
03 19.02 штиль 0 12 км ясно +16.8 +2.3 38 +17 +17 1006.5 782.5
06 19.02 штиль 0 12 км ясно +12.6 +2.4 50 +12 +12 1008.8 782.9 +6.2 +28.9
12 19.02 штиль 0 8000 м ясно +6.8 +2.2 72 +6 +6 1016.0 782.4 +6.0 +28.9
15 19.02 штиль 0 12 км ясно +14.8 +7.5 62 +15 +22 1020.1 783.8
18 19.02 Ю 3 8000 м мгла {туман} ясно +23.6 +5.3 31 +24 +37 комфорт 1017.3 782.8 +5.6 +24.8
21 19.02 Ю 5 18 км ясно +25.8 +2.1 21 +24 +30 комфорт 1010.8 780.4
00 20.02 ЮВ 4 18 км ясно +23.7 +1.1 23 +23 +23 комфорт 1006.8 780.1 +5.6 +27.3
03 20.02 СЗ 1 12 км ясно +15.5 +2.4 41 +16 +16 1006.5 781.4
06 20.02 штиль 0 12 км ясно +10.7 +0.8 50 +10 +10 1009.0 781.9 +5.6 +27.3
12 20.02 штиль 0 10 км ясно +5.2 +2.5 83 +4 +4 1019.0 783.7 +4.6 +27.3
15 20.02 штиль 0 15 км ясно +10.6 +0.9 51 +10 +18 1019.8 782.4
18 20.02 ЮВ 2 18 км ясно +23.0 +2.4 26 +23 +39 комфорт 1016.6 781.3 +4.6 +24.2
21 20.02 ЮВ 5 20 км 1/1 1500 м
[Cu hum]
+26.0 +0.1 18 +24 +29 комфорт 1009.6 778.7
00 21.02 ЮВ 4 25 км ясно +23.4 +19 +19 1005.2 778.4 +4.6 +27.2
03 21.02 Ю 1 15 км ясно +18.1 +2.1 34 +19 +19 1004.3 779.7
06 21.02 штиль 0 12 км ясно +12.5 +3.4 54 +12 +12 1007.0 780.8 +4.6 +27.2
12 21.02 штиль 0 8000 м ясно +5.8 +3.9 88 +5 +5 1014.0 780.7 +5.0 +27.2
15 21.02 штиль 0 15 км ясно +11.4 +5.4 67 +11 +19 1018.4 782.1
18 21.02 ЮЗ 3 15 км мгла {туман} ясно +22.0 +7.0 38 +23 +37 комфорт 1016.3 781.4 +5.0 +23.0
21 21.02 Ю 3 10 км мгла {туман} 1/1 1300 м
[Cu hum]
+25.0 +5.2 28 +25 +33 комфорт 1010.1 779.1
00 22.02 Ю 4 10 км мгла {туман} 1/1 1260 м
[Cu hum]
+22.5 +4.9 32 +23 +23 комфорт 1006.8 779.4 +5.0 +26.2
03 22.02 ЮВ 1 12 км 1/0
[Ci fib]
+18.1 +3.3 37 +19 +19 1006.7 781.2
06 22.02 СЗ 1 12 км 1/0
[Ci]
+11.6 +1.8 51 +12 +12 1008.9 781.9 +5.0 +26.2
12 22.02 СВ 1 8000 м 3/0
[Cs]
+6.4 +1.7 72 +6 +6 1016.5 782.5 +5.5 +26.2
15 22.02 ЮВ 2 23 км 1/0
[Ci]
+13.8 +5.1 56 +13 +19 1020.5 783.9
18 22.02 ЮВ 1 23 км 4/0
[Ci]
+24.2 +4.8 28 +24 +42 комфорт 1017.0 782.6 +5.5 +25.2
21 22.02 ЮВ 3 18 км 4/0
[Ci]
+27.1 -1.3 15 +25 +33 комфорт 1011.1 780.9
00 23.02 ЮВ 5 18 км 9/0
[Ac trans Cs]
+23.7 +1.9 24 +23 +23 комфорт 1007.4 781.0 +5.5 +28.3
03 23.02 ЮВ 1 12 км 4/0
[Ac trans Ci]
+19.9 +3.8 35 +21 +21 комфорт 1007.1 782.6
06 23.02 штиль 0 12 км 4/0
[Ac trans Ci]
+14.5 +2.4 44 +14 +14 1009.2 783.4 +5.5 +28.3

 

Местоположение метеостанции Тлашкала аэропорт (Мексика): широта 19.31 долгота -98.24 высота над уровнем моря 2282 м.

В архиве по умолчанию представлена погода в Тлашкала аэропорту за последнюю неделю. Архивные данные за месяц целиком и за предыдущие месяцы, начиная с января 2011 года, Вы можете получить, выбрав интересующий диапазон дат из раскрывающегося списка и нажав кнопку "Ввод!".


*Определитесь, кто Вы:
робот инопланетянин человек

Внимание! Время в таблицах - всемирное. Для получения местного времени необходимо прибавить поправку, которая равна -6 ч.

Смотрите также архив погоды в соседних городах и на ближайших метеорологических станциях:

Погода в Тлашкале (Мексика) (2 км)
Погода в Пуэбле (Мексика) (30 км)
Погода в Тулансинго (Мексика) (87 км)
Погода в Институте Географии (Мексика) (99 км)
Погода в Мехико (Мексика) (99 км)
Погода в Пачуке (Мексика) (106 км)
Погода в Куэрнаваке (Мексика) (115 км)
Погода в Сакатепеке (Мексика) (119 км)
Погода в Оризабе (Мексика) (130 км)
Погода в Халапе (Мексика) (142 км)

Пояснения к столбцам:

Ветер - указаны скорость ветра в м/с - средняя за 10 мин, порывы в срок и между сроками (в фигурных скобках) и направление, откуда дует ветер: С - северный, СВ - северо-восточный, В - восточный, ЮВ - юго-восточный, Ю - южный, ЮЗ - юго-западный, З - западный, СЗ - северо-западный.
Видимость - горизонтальная дальность видимости в метрах или километрах. При видимости от 1 до 10 км при отсутствии осадков обычно наблюдается дымка, при ухудшении видимости до 1 км и менее - туман. В сухую погоду видимость может ухудшаться дымом, пылью или мглою.
Явления - указаны атмосферные явления, наблюдавшиеся в срок или в последний час перед сроком; фигурными скобками обозначены явления, наблюдавшиеся между сроками (за 1-3 часа до срока); квадратными скобками обозначены град или гололедные отложения с указанием их диаметра в мм.
Облачность - указаны через наклонную черту общая и нижняя облачность в баллах и высота нижней границы облаков в метрах; квадратными скобками обозначены формы облаков: Ci - перистые, Cs - перисто-слоистые, Cc - перисто-кучевые, Ac - высококучевые, As - высокослоистые, Sc - слоисто-кучевые, Ns - слоисто-дождевые, Cu - кучевые, Cb - кучево-дождевые. Подробнее классификацию облаков см. в Атласе облаков (PDF).
T - Температура воздуха - температура, измеренная на высоте 2 м над землей.
Td - Температура точки росы - температура, при понижении до которой содержащийся в воздухе водяной пар достигнет насыщения.
f - Относительная влажность воздуха - влажноcть воздуха, измеренная на высоте 2 м над землей.
Te - Эффективная температура - температура, которую ощущает одетый по сезону человек в тени. Характеристика душности погоды. При расчете учитывается влияние влажности воздуха и скорости ветра на теплоощущения человека.
Tes - Эффективная температура на солнце - температура, которую ощущает человек, с поправкой на солнечный нагрев. Характеристика знойности погоды. Зависит от высоты солнца над горизонтом, облачности и скорости ветра. Ночью, в пасмурную погоду, а также при ветре 12 м/с и более поправка равна нулю.
P - Атмосферное давление - приведенное к уровню моря атмосферное давление.
Po - Атмосферное давление - измеренное на уровне метеостанции атмосферное давление.
Tmin - Минимальная температура - минимум температуры воздуха на высоте 2 м над землей.
Tmax - Максимальная температура - максимум температуры воздуха на высоте 2 м над землей.
R - Количество осадков - Количество выпавших осадков за период времени, мм. При наведении курсора мыши на число - период времени, за который выпало указанное количество осадков.
R24 - Количество осадков - Количество выпавших осадков за 24 часа, мм.
S - Снежный покров - Высота снежного покрова, см. При наведении курсора мыши на число - состояние снежного покрова и степень покрытия местности в баллах.